Lapse_Rate
6.2 6.2 6.1 6.1 6.2 6.2 6.1 6.0 6.0 6.0 6.0 5.7 5.6 5.5 5.8 5.8 5.5 5.4 5.1 4.9 5.0 5.2 5.3 5.2 5.1 5.0 4.8 4.8 4.7 4.7 4.8 5.0 5.1 5.2 5.3 5.4 5.4 5.3 5.3 5.3 5.2 5.5 5.5
6.0 6.2 6.3 6.2 6.0 6.1 6.3 6.1 6.0 6.0 6.0 5.8 5.7 5.6 5.7 5.8 5.7 5.4 5.1 5.0 5.1 5.3 5.1 5.3 5.1 4.9 4.7 4.7 4.7 4.8 4.8 5.0 5.0 5.2 5.3 5.3 5.4 5.3 5.3 5.4 5.7 5.7 5.8
5.8 6.0 6.0 6.2 6.3 6.0 6.1 6.2 6.1 6.0 5.9 5.9 5.8 5.6 5.5 5.7 5.8 5.7 5.2 5.0 5.1 5.3 5.2 5.2 5.0 4.8 4.6 4.7 4.7 4.8 4.8 4.9 5.0 5.1 5.2 5.2 5.2 5.2 5.3 5.5 5.8 5.8 5.9
5.6 5.5 5.6 5.9 6.1 6.1 5.8 5.9 6.2 6.0 5.9 5.7 5.6 5.6 5.3 5.5 5.7 5.4 5.4 5.1 5.1 5.2 5.3 5.2 5.1 4.8 4.6 4.6 4.7 4.7 4.7 4.8 5.0 5.1 5.2 5.2 5.2 5.4 5.5 5.6 5.7 5.8 6.0
5.4 5.5 5.5 5.7 5.9 5.8 5.8 5.7 5.8 5.8 5.7 5.7 5.4 5.2 5.3 5.3 5.3 5.3 5.3 5.2 5.1 5.2 5.2 5.2 5.1 4.8 4.7 4.6 4.6 4.6 4.7 4.8 4.9 5.0 5.2 5.2 5.3 5.5 5.6 5.7 5.7 5.8 6.0
5.4 5.5 5.5 5.5 5.7 5.9 5.9 5.7 5.6 5.8 5.6 5.6 5.5 5.3 5.2 5.3 5.3 5.3 5.1 5.2 5.2 5.2 5.2 5.1 5.0 4.8 4.7 4.6 4.5 4.5 4.5 4.6 4.7 4.9 5.0 5.2 5.4 5.4 5.6 5.7 5.8 5.8 5.9
5.2 5.4 5.4 5.5 5.5 5.5 5.6 5.6 5.6 5.6 5.6 5.6 5.6 5.5 5.2 5.3 5.3 5.1 4.9 5.1 5.3 5.2 5.1 5.1 5.1 4.7 4.6 4.6 4.6 4.5 4.5 4.5 4.5 4.6 4.9 5.1 5.2 5.4 5.5 5.7 5.7 5.8 5.8
5.2 5.2 5.3 5.5 5.6 5.5 5.4 5.6 5.7 5.7 5.7 5.7 5.6 5.5 5.5 5.4 5.3 4.9 4.9 5.1 5.2 5.3 5.2 5.1 5.1 4.8 4.5 4.5 4.5 4.4 4.5 4.5 4.6 4.7 4.8 5.0 5.2 5.4 5.5 5.5 5.6 5.7 5.9
5.1 5.2 5.0 5.2 5.5 5.5 5.5 5.4 5.7 5.7 5.7 5.8 5.7 5.6 5.6 5.4 5.4 4.9 4.8 4.9 5.1 5.3 5.4 5.1 5.1 5.0 4.7 4.5 4.5 4.5 4.5 4.6 4.6 4.7 4.8 4.9 5.0 5.3 5.4 5.5 5.6 5.8 6.0
5.3 5.2 5.1 5.3 5.2 5.3 5.4 5.4 5.5 5.5 5.9 5.8 6.0 5.8 5.5 5.5 5.4 5.2 5.0 4.9 5.1 5.4 5.4 5.3 5.1 5.0 4.9 4.6 4.5 4.6 4.6 4.6 4.7 4.7 4.7 4.8 5.0 5.2 5.3 5.4 5.5 5.5 5.7
5.5 5.5 5.2 5.0 5.2 5.2 4.9 4.8 4.7 4.9 5.3 5.8 6.0 6.0 5.7 5.5 5.3 5.4 5.2 4.8 5.0 5.3 5.5 5.4 5.2 4.9 4.8 4.7 4.5 4.4 4.5 4.6 4.7 4.8 4.8 4.9 4.9 5.0 5.1 5.2 5.4 5.6 5.7
5.5 5.6 5.4 4.9 5.3 4.8 4.8 4.7 4.8 4.6 4.6 4.9 5.5 6.0 5.9 5.9 5.5 5.2 5.2 5.0 4.9 5.2 5.6 5.6 5.4 5.1 4.8 4.7 4.5 4.5 4.4 4.4 4.6 4.6 4.8 4.8 4.9 5.0 5.1 5.2 5.3 5.4 5.6
5.3 5.9 5.6 5.2 5.1 4.8 4.5 4.9 4.6 4.5 4.6 4.6 4.7 5.5 5.8 5.6 5.8 5.5 5.4 5.5 5.3 5.2 5.6 5.7 5.5 5.3 5.0 4.7 4.6 4.4 4.5 4.4 4.6 4.7 4.7 4.8 4.8 4.9 5.0 5.1 5.1 5.2 5.3
5.2 5.3 5.6 5.5 5.3 5.0 4.7 4.5 4.7 4.7 4.5 4.8 4.6 5.0 5.2 5.2 5.4 5.5 5.4 5.5 5.6 5.4 5.4 5.6 5.5 5.3 5.1 4.8 4.7 4.6 4.5 4.5 4.6 4.6 4.7 4.8 4.8 4.9 5.0 5.1 5.2 5.2 5.3
5.3 5.1 5.4 5.5 5.4 5.0 4.9 4.8 4.8 4.9 4.9 4.8 4.7 4.7 4.9 4.9 5.4 5.7 5.5 5.4 5.5 5.4 5.5 5.4 5.4 5.4 5.2 4.9 4.7 4.6 4.7 4.6 4.6 4.6 4.7 4.8 4.8 4.9 5.0 5.1 5.1 5.2 5.3
5.1 5.3 5.1 5.4 5.8 5.1 4.9 4.9 4.9 4.9 5.0 5.1 4.6 4.4 4.5 4.8 5.1 5.7 5.7 5.6 5.5 5.5 5.5 5.3 5.3 5.3 5.2 5.1 4.9 4.6 4.6 4.6 4.6 4.7 4.8 4.8 4.8 4.8 5.0 5.0 5.1 5.2 5.2
5.5 5.2 5.3 5.2 5.4 5.6 5.2 4.9 4.9 5.0 5.0 5.0 4.8 4.6 4.3 4.4 4.7 5.1 5.6 5.8 5.8 5.6 5.3 5.2 5.1 5.3 5.3 5.1 5.0 4.7 4.7 4.7 4.7 4.7 4.8 4.8 4.8 4.9 4.9 4.9 5.0 5.1 5.1
5.5 5.3 5.2 5.2 5.1 5.3 5.6 5.4 5.0 4.9 5.1 5.4 5.1 5.1 4.9 4.6 4.7 4.9 4.9 5.4 6.1 5.9 5.3 5.4 5.3 5.1 5.0 5.1 4.9 4.8 4.7 4.8 4.8 4.8 4.8 4.9 4.9 4.9 4.9 4.9 5.0 5.0 5.1
5.6 5.6 5.3 5.2 5.3 5.3 5.1 5.4 5.2 4.9 4.9 5.2 5.2 5.0 5.0 5.1 4.7 4.8 5.0 5.3 5.7 5.6 5.5 5.4 5.2 5.2 4.9 5.0 4.9 4.9 4.8 4.8 4.8 5.0 5.1 5.1 5.1 5.1 5.0 5.0 5.0 5.0 5.0
5.6 5.2 5.3 5.2 5.2 5.2 5.4 5.1 5.1 5.2 5.1 5.1 5.1 5.2 5.2 4.9 4.9 4.8 5.0 5.4 5.4 5.4 5.4 5.0 5.1 5.3 5.0 5.2 5.0 5.0 5.1 5.0 4.9 5.0 5.1 5.1 5.1 5.0 4.9 4.9 4.9 5.0 5.0
5.6 5.2 4.7 4.8 5.0 5.2 5.4 5.6 5.2 5.2 5.2 5.1 5.1 5.2 5.1 5.0 4.7 4.8 4.9 5.5 5.7 5.4 4.5 4.7 4.9 4.9 4.9 5.1 5.1 5.1 5.1 5.1 5.1 5.2 5.1 5.2 5.1 5.2 4.9 5.1 5.1 5.0 5.0
5.3 5.2 4.8 4.5 4.6 4.8 5.1 5.4 5.6 5.3 5.5 5.6 5.5 5.2 5.0 4.9 4.8 4.9 5.0 5.5 5.3 4.9 4.7 4.8 4.5 4.9 5.0 5.1 5.2 5.1 5.1 5.2 5.2 5.1 5.1 5.3 5.2 5.1 5.0 5.0 4.9 4.9 4.8
4.9 4.9 4.8 4.6 4.6 4.7 4.9 5.0 5.3 5.3 5.8 5.6 5.7 5.5 5.2 4.9 5.0 4.4 4.4 4.7 4.6 4.9 4.8 4.3 3.9 4.5 5.0 5.1 5.0 4.8 5.2 5.5 5.6 5.7 5.6 5.7 5.3 5.0 5.2 5.3 5.2 5.4 5.2
4.5 4.3 4.6 4.7 4.6 4.8 5.0 5.0 5.3 5.6 5.5 5.6 5.7 5.3 5.4 4.7 4.5 4.3 3.8 4.3 4.7 4.7 4.3 4.5 3.9 3.8 4.5 4.8 5.0 5.0 4.9 5.3 5.4 5.9 5.7 5.4 5.0 5.1 5.5 5.3 5.3 5.4 5.3
4.2 4.2 4.3 4.5 4.7 4.8 4.9 5.2 5.4 5.5 5.4 5.1 4.8 5.1 5.0 4.8 4.6 4.2 4.4 4.8 5.0 5.0 4.7 4.2 3.9 4.3 4.6 4.4 4.5 5.0 4.9 5.5 5.6 5.6 5.3 5.4 5.3 5.5 5.3 5.4 5.6 5.5 5.4
4.5 4.4 4.3 4.6 4.8 5.1 5.3 5.4 5.3 5.3 5.2 5.0 5.2 5.3 5.3 4.8 5.0 5.1 5.3 5.2 5.1 4.9 4.8 4.5 4.4 4.6 4.8 4.9 5.0 5.0 5.6 5.4 5.2 5.5 5.4 5.5 5.5 5.7 5.6 5.4 5.5 5.4 5.4
Wind_Speed
3 10 19 18 19 20 20 19 17 17 17 18 18 18 18 18 18 19 19 16 15 17 16 15 14 15 17 17 17 15 15 15 16 15 15 15 15 15 15 14 13 13 16
7 11 20 17 17 20 20 19 18 17 17 17 17 17 18 19 19 19 18 18 17 18 19 17 16 17 17 17 17 15 15 14 14 14 15 15 16 16 16 14 15 15 17
11 11 16 16 15 19 19 19 18 17 17 17 16 16 17 19 20 19 19 19 16 18 20 19 17 16 16 16 15 13 13 12 12 13 13 10 14 16 16 15 15 13 12
12 13 13 16 15 16 18 17 17 17 17 16 15 16 17 18 19 19 19 18 18 18 18 18 18 16 15 12 10 11 12 10 10 11 12 10 10 13 12 12 12 11 11
7 12 14 17 13 13 16 16 16 15 14 16 16 17 17 18 17 15 21 19 17 15 18 17 17 16 13 11 9 12 11 10 9 10 9 9 11 10 10 10 10 10 10
4 10 15 18 18 16 15 16 17 16 15 14 14 15 17 17 16 18 19 19 18 16 18 17 15 14 12 11 13 15 12 10 10 9 8 8 8 9 9 9 10 10 10
5 3 12 17 16 16 16 16 17 19 17 16 14 14 17 17 18 19 19 20 17 16 16 16 15 13 13 11 12 13 12 10 9 7 7 6 6 8 8 8 9 9 9
8 8 9 14 14 14 14 14 14 14 17 16 16 15 17 16 16 20 21 21 19 17 16 15 15 14 12 11 12 12 11 11 9 7 6 5 6 7 7 7 7 7 7
5 8 9 9 11 12 11 13 12 13 14 16 16 16 16 16 17 21 21 20 20 18 16 15 16 15 13 11 12 13 11 10 9 7 6 4 5 6 6 6 5 5 6
4 2 5 9 9 7 7 10 11 12 12 16 15 15 16 17 20 21 20 20 20 18 16 15 15 15 14 12 10 12 11 9 8 6 4 5 4 5 5 4 3 3 4
4 5 3 6 7 12 11 9 10 13 13 13 15 16 16 13 17 20 17 20 20 18 17 16 14 12 12 12 10 7 9 8 8 7 7 7 6 5 5 4 3 2 1
4 3 4 3 3 10 8 10 10 12 12 9 9 12 13 15 14 16 17 20 19 19 17 16 15 12 10 7 7 7 6 7 7 8 8 9 8 7 6 6 5 5 4
5 2 2 2 3 2 5 6 7 8 9 10 8 9 11 11 12 13 13 15 13 17 13 14 12 11 10 9 7 6 6 7 7 10 11 10 10 9 9 9 9 8 7
6 6 4 3 3 3 1 4 5 4 7 6 10 9 7 5 8 9 9 11 11 11 10 11 10 10 8 8 7 6 7 7 8 9 12 13 12 12 11 11 10 10 9
7 6 7 5 4 4 4 3 2 1 0 1 9 16 15 6 5 10 8 8 9 12 10 8 8 7 6 6 7 7 7 9 9 9 11 14 15 15 14 12 10 8 8
7 8 7 9 8 6 4 4 3 3 3 2 3 7 13 16 9 7 7 8 8 11 12 9 6 5 4 6 5 8 9 9 10 11 13 14 17 18 13 13 11 9 9
7 6 8 11 9 8 7 5 4 5 5 4 6 9 12 13 13 14 6 6 9 10 10 8 6 4 1 4 5 5 7 10 10 11 12 12 14 16 18 12 12 10 8
8 8 8 8 10 10 9 5 3 5 6 6 8 10 11 14 14 12 9 8 11 12 11 6 4 3 3 3 3 4 4 7 9 11 12 14 15 15 16 19 13 10 8
9 9 7 9 10 10 7 4 4 4 4 7 8 9 12 12 12 12 7 8 12 9 7 6 3 3 3 3 4 4 4 4 5 6 9 11 13 14 15 14 14 9 7
9 8 7 7 9 8 5 4 3 3 5 6 7 9 13 12 14 11 6 4 8 3 4 5 3 2 3 4 4 4 4 4 3 4 4 9 10 10 10 10 9 7 5
8 8 9 8 9 8 6 8 5 7 8 7 5 10 14 14 13 11 5 5 4 5 3 4 2 4 4 2 1 2 3 5 5 4 4 3 3 5 7 8 8 6 3
11 9 9 11 9 9 7 4 2 3 5 6 5 9 15 17 17 11 8 7 7 5 5 6 6 2 3 4 3 1 3 3 3 3 2 3 4 5 5 7 7 8 7
9 9 10 13 12 12 10 4 4 2 1 3 5 6 8 13 14 13 11 9 6 5 5 7 7 8 4 3 5 3 1 4 2 1 2 2 3 3 3 6 8 10 9
10 9 10 12 13 13 7 8 10 5 4 3 4 5 6 10 9 10 9 8 7 6 9 10 9 6 4 4 1 3 2 2 2 3 1 1 3 4 5 4 7 8 11
7 8 11 11 10 9 12 9 7 6 4 2 2 5 5 6 7 12 11 9 10 8 9 10 8 8 6 4 4 2 2 2 1 3 3 2 2 4 6 7 8 9 12
6 9 9 11 12 8 8 9 9 10 7 5 4 4 3 3 4 9 9 9 9 8 10 11 6 6 7 6 4 4 4 3 4 3 4 4 6 4 4 4 5 7 10
Wind_Direction
206 166 157 161 162 155 149 148 144 140 138 141 142 140 139 139 139 139 139 141 137 129 126 121 118 115 105 104 103 94 88 87 82 76 72 79 94 89 83 94 89 85 83
149 163 156 160 164 157 155 151 148 145 144 146 146 145 145 144 143 144 142 141 143 140 127 124 123 112 108 108 99 99 96 90 82 77 79 82 89 90 88 85 82 82 73
144 156 155 160 164 161 161 154 150 150 150 149 154 154 153 151 150 152 146 145 146 130 128 123 125 117 112 112 105 103 102 95 84 76 73 77 95 86 82 78 72 67 64
146 149 156 163 164 163 159 157 159 156 156 156 161 159 159 160 162 158 149 147 134 130 128 128 124 124 118 117 119 117 111 99 87 84 74 67 75 87 83 75 73 72 70
145 151 158 161 164 162 153 161 163 167 165 167 171 166 163 167 169 155 160 145 130 132 123 135 130 125 122 113 111 141 121 110 101 93 83 73 70 83 82 81 79 78 77
130 146 162 164 166 170 166 163 168 172 174 176 182 175 170 172 167 149 146 131 129 135 133 139 136 133 126 114 111 120 125 115 112 106 96 91 95 101 99 95 89 82 76
111 123 168 166 172 171 172 175 172 174 178 178 182 182 180 184 166 151 138 127 133 143 148 148 147 142 129 123 130 127 126 125 120 113 111 111 115 109 104 99 92 85 79
151 143 173 174 179 177 178 179 182 180 180 181 181 185 185 184 173 153 144 141 149 157 159 158 154 147 137 129 139 139 137 138 135 132 129 126 123 117 109 99 91 85 78
185 161 163 177 182 184 180 185 186 192 189 181 185 186 189 187 173 159 153 154 159 164 164 163 160 154 147 138 139 152 148 149 144 152 153 152 151 134 125 119 111 99 89
327 195 144 157 158 168 184 189 186 194 200 181 188 190 186 183 176 165 160 163 164 167 166 165 166 162 155 150 143 159 160 155 157 163 179 187 191 157 145 139 127 105 84
348 323 298 163 154 155 162 170 186 196 188 192 194 194 188 171 173 171 166 169 167 167 168 168 168 166 164 158 154 154 165 172 178 186 197 209 212 194 184 180 179 159 128
314 323 342 322 231 148 144 163 175 174 171 181 195 193 174 169 167 166 171 176 171 170 172 174 172 171 166 160 151 157 170 189 208 214 214 215 222 217 212 210 215 221 221
290 259 232 290 306 308 159 151 169 173 154 152 161 183 179 167 167 166 169 179 180 177 176 178 177 175 174 174 175 184 196 214 227 228 231 227 230 234 229 228 228 231 241
257 242 203 222 257 242 180 181 165 170 154 158 155 168 165 173 177 169 177 180 180 186 187 177 174 185 187 186 188 191 209 224 238 246 241 236 232 240 246 246 245 250 248
259 232 218 192 233 236 187 205 220 252 344 198 170 172 175 180 196 175 171 179 185 180 185 184 177 182 196 206 211 209 214 226 237 242 241 239 237 239 242 247 253 260 271
239 233 211 206 206 214 230 208 197 186 223 252 214 208 200 182 179 191 179 186 190 190 179 182 184 187 216 209 226 230 236 239 241 242 240 243 242 244 253 260 252 248 260
234 223 209 213 202 205 226 228 211 211 217 212 220 220 217 207 197 177 180 188 191 194 176 173 174 188 243 267 247 248 248 243 242 242 244 248 248 247 245 249 257 253 265
233 220 213 212 206 215 213 221 218 202 215 211 203 209 215 218 208 206 180 186 187 191 185 174 166 200 203 239 266 259 252 243 240 245 245 251 247 244 242 240 242 254 259
232 233 215 199 206 211 222 199 212 227 219 227 202 196 208 214 213 213 204 187 171 191 187 176 173 169 201 221 254 254 253 250 238 236 239 241 244 241 237 232 227 232 235
245 238 232 191 201 191 190 199 214 220 239 219 228 206 196 203 203 204 208 176 149 176 192 182 166 180 195 202 241 252 248 245 244 234 239 247 241 227 221 211 188 197 221
244 232 222 199 199 185 197 207 216 227 241 227 216 221 206 192 189 179 172 150 162 169 214 204 171 202 226 158 222 296 276 252 252 240 232 223 206 187 189 198 185 182 200
226 220 215 215 197 197 199 197 192 192 227 232 219 224 204 196 192 180 179 193 168 146 198 222 203 207 225 169 181 102 289 309 255 224 214 192 193 175 189 205 194 184 187
227 213 202 209 210 210 197 168 184 164 179 180 202 214 209 205 200 191 170 163 177 175 210 225 218 204 194 208 203 168 159 231 330 22 247 215 171 213 218 219 204 196 188
226 221 203 197 202 207 172 197 212 202 197 198 184 197 191 202 190 191 186 183 179 187 214 214 203 200 162 205 215 221 167 131 198 326 299 215 216 223 208 210 208 212 201
231 212 199 184 187 190 196 196 204 206 184 168 161 162 187 185 183 194 191 197 194 213 213 227 190 193 188 173 180 163 170 160 167 176 250 242 207 216 207 204 203 198 192
232 188 186 182 193 177 176 196 200 208 190 165 171 165 151 127 187 200 196 198 205 211 217 225 198 185 201 215 204 210 198 193 194 200 219 234 239 221 213 211 181 188 193